Time,TemperatureF,DewpointF,PressureIn,WindDirection,WindDirectionDegrees,WindSpeedMPH,WindSpeedGustMPH,Humidity,HourlyPrecipIn,Conditions,Clouds,dailyrainin,SoftwareType,DateUTC
2013-02-02 00:02:00,28.0,16.0,30.28,ESE,102,0.0,-999.0,60,-99.99,,,-99.99,,2013-02-02 06:02:00,
2013-02-02 00:12:00,28.0,16.0,30.28,ESE,102,0.0,-999.0,60,-99.99,,,-99.99,,2013-02-02 06:12:00,
2013-02-02 00:21:00,28.0,16.0,30.27,East,93,1.0,-999.0,61,-99.99,,,-99.99,,2013-02-02 06:21:00,
2013-02-02 00:31:00,28.0,17.0,30.27,ENE,65,1.0,-999.0,62,-99.99,,,-99.99,,2013-02-02 06:31:00,
2013-02-02 00:41:00,28.0,17.0,30.27,ENE,65,1.0,-999.0,62,-99.99,,,-99.99,,2013-02-02 06:41:00,
2013-02-02 00:51:00,28.0,17.0,30.27,ENE,65,0.0,-999.0,62,-99.99,,,-99.99,,2013-02-02 06:51:00,
2013-02-02 01:02:00,28.0,17.0,30.27,ENE,65,0.0,-999.0,64,-99.99,,,-99.99,,2013-02-02 07:02:00,
2013-02-02 01:11:00,27.0,16.0,30.26,ENE,65,0.0,-999.0,64,-99.99,,,-99.99,,2013-02-02 07:11:00,
2013-02-02 01:21:00,27.0,16.0,30.26,ENE,65,0.0,-999.0,64,-99.99,,,-99.99,,2013-02-02 07:21:00,
2013-02-02 01:31:00,26.0,16.0,30.26,ENE,65,0.0,-999.0,66,-99.99,,,-99.99,,2013-02-02 07:31:00,
2013-02-02 01:41:00,26.0,16.0,30.26,ENE,65,0.0,-999.0,66,-99.99,,,-99.99,,2013-02-02 07:41:00,
2013-02-02 01:52:00,25.0,16.0,30.26,ENE,65,0.0,-999.0,69,-99.99,,,-99.99,,2013-02-02 07:52:00,
2013-02-02 02:01:00,25.0,18.0,30.25,ENE,65,0.0,-999.0,73,-99.99,,,-99.99,,2013-02-02 08:01:00,
2013-02-02 02:11:00,25.0,18.0,30.25,ENE,65,0.0,-999.0,73,-99.99,,,-99.99,,2013-02-02 08:11:00,
2013-02-02 02:21:00,25.0,17.0,30.25,ENE,65,0.0,-999.0,71,-99.99,,,-99.99,,2013-02-02 08:21:00,
2013-02-02 02:31:00,25.0,18.0,30.25,ENE,65,0.0,-999.0,73,-99.99,,,-99.99,,2013-02-02 08:31:00,
2013-02-02 02:41:00,25.0,18.0,30.25,ENE,65,0.0,-999.0,73,-99.99,,,-99.99,,2013-02-02 08:41:00,
2013-02-02 02:52:00,25.0,18.0,30.24,ENE,65,0.0,-999.0,74,-99.99,,,-99.99,,2013-02-02 08:52:00,
2013-02-02 03:01:00,25.0,17.0,30.24,ENE,65,0.0,-999.0,71,-99.99,,,-99.99,,2013-02-02 09:01:00,
2013-02-02 03:11:00,25.0,17.0,30.24,ENE,65,0.0,-999.0,71,-99.99,,,-99.99,,2013-02-02 09:11:00,
2013-02-02 03:22:00,25.0,17.0,30.24,ENE,65,0.0,-999.0,71,-99.99,,,-99.99,,2013-02-02 09:22:00,
2013-02-02 03:31:00,26.0,18.0,30.22,ENE,65,0.0,-999.0,71,-99.99,,,-99.99,,2013-02-02 09:31:00,
2013-02-02 03:41:00,26.0,18.0,30.22,ENE,65,0.0,-999.0,71,-99.99,,,-99.99,,2013-02-02 09:41:00,
2013-02-02 03:52:00,25.0,17.0,30.22,ENE,65,0.0,-999.0,72,-99.99,,,-99.99,,2013-02-02 09:52:00,
2013-02-02 04:01:00,25.0,18.0,30.22,ENE,65,0.0,-999.0,73,-99.99,,,-99.99,,2013-02-02 10:01:00,
2013-02-02 04:11:00,25.0,18.0,30.22,ENE,65,0.0,-999.0,73,-99.99,,,-99.99,,2013-02-02 10:11:00,
2013-02-02 04:21:00,24.0,17.0,30.21,ENE,65,0.0,-999.0,74,-99.99,,,-99.99,,2013-02-02 10:21:00,
2013-02-02 04:31:00,24.0,17.0,30.21,ENE,65,0.0,-999.0,74,-99.99,,,-99.99,,2013-02-02 10:31:00,
2013-02-02 04:42:00,24.0,17.0,30.21,ENE,65,0.0,-999.0,74,-99.99,,,-99.99,,2013-02-02 10:42:00,
2013-02-02 04:52:00,23.0,17.0,30.20,ENE,65,0.0,-999.0,76,-99.99,,,-99.99,,2013-02-02 10:52:00,
2013-02-02 05:01:00,23.0,17.0,30.20,ENE,65,0.0,-999.0,78,-99.99,,,-99.99,,2013-02-02 11:01:00,
2013-02-02 05:11:00,23.0,17.0,30.20,ENE,65,0.0,-999.0,78,-99.99,,,-99.99,,2013-02-02 11:11:00,
2013-02-02 05:21:00,23.0,18.0,30.20,ENE,65,0.0,-999.0,80,-99.99,,,-99.99,,2013-02-02 11:21:00,
2013-02-02 05:32:00,22.0,16.0,30.19,ENE,65,0.0,-999.0,78,-99.99,,,-99.99,,2013-02-02 11:32:00,
2013-02-02 05:42:00,22.0,16.0,30.19,ENE,65,0.0,-999.0,78,-99.99,,,-99.99,,2013-02-02 11:42:00,
2013-02-02 05:52:00,22.0,16.0,30.19,ENE,65,0.0,-999.0,78,-99.99,,,-99.99,,2013-02-02 11:52:00,
2013-02-02 06:01:00,22.0,17.0,30.19,ENE,65,0.0,-999.0,80,-99.99,,,-99.99,,2013-02-02 12:01:00,
2013-02-02 06:11:00,22.0,17.0,30.19,ENE,65,0.0,-999.0,80,-99.99,,,-99.99,,2013-02-02 12:11:00,
2013-02-02 06:22:00,22.0,17.0,30.20,ENE,65,0.0,-999.0,82,-99.99,,,-99.99,,2013-02-02 12:22:00,
2013-02-02 06:32:00,22.0,18.0,30.20,ENE,65,0.0,-999.0,83,-99.99,,,-99.99,,2013-02-02 12:32:00,
2013-02-02 06:42:00,22.0,18.0,30.20,ENE,65,0.0,-999.0,83,-99.99,,,-99.99,,2013-02-02 12:42:00,
2013-02-02 06:52:00,21.0,16.0,30.19,ENE,65,0.0,-999.0,81,-99.99,,,-99.99,,2013-02-02 12:52:00,
2013-02-02 07:02:00,22.0,17.0,30.19,ENE,65,0.0,-999.0,82,-99.99,,,-99.99,,2013-02-02 13:02:00,
2013-02-02 07:11:00,22.0,17.0,30.19,ENE,65,0.0,-999.0,82,-99.99,,,-99.99,,2013-02-02 13:11:00,
2013-02-02 07:21:00,21.0,16.0,30.19,ENE,65,0.0,-999.0,82,-99.99,,,-99.99,,2013-02-02 13:21:00,
2013-02-02 07:32:00,21.0,16.0,30.19,ENE,65,0.0,-999.0,82,-99.99,,,-99.99,,2013-02-02 13:32:00,
2013-02-02 07:42:00,21.0,16.0,30.19,ENE,65,0.0,-999.0,82,-99.99,,,-99.99,,2013-02-02 13:42:00,
2013-02-02 07:52:00,21.0,16.0,30.19,ENE,65,0.0,-999.0,82,-99.99,,,-99.99,,2013-02-02 13:52:00,
2013-02-02 08:02:00,21.0,17.0,30.19,ENE,65,0.0,-999.0,83,-99.99,,,-99.99,,2013-02-02 14:02:00,
2013-02-02 08:11:00,21.0,17.0,30.19,ENE,65,0.0,-999.0,83,-99.99,,,-99.99,,2013-02-02 14:11:00,
2013-02-02 08:22:00,21.0,17.0,30.19,ENE,65,0.0,-999.0,84,-99.99,,,-99.99,,2013-02-02 14:22:00,
2013-02-02 08:32:00,24.0,19.0,30.19,ENE,65,0.0,-999.0,82,-99.99,,,-99.99,,2013-02-02 14:32:00,
2013-02-02 08:42:00,24.0,19.0,30.19,ENE,65,0.0,-999.0,82,-99.99,,,-99.99,,2013-02-02 14:42:00,
2013-02-02 08:52:00,25.0,20.0,30.20,ENE,65,0.0,-999.0,80,-99.99,,,-99.99,,2013-02-02 14:52:00,
2013-02-02 09:03:00,27.0,21.0,30.20,ENE,65,0.0,-999.0,78,-99.99,,,-99.99,,2013-02-02 15:03:00,
2013-02-02 09:12:00,27.0,21.0,30.20,ENE,65,0.0,-999.0,78,-99.99,,,-99.99,,2013-02-02 15:12:00,
2013-02-02 09:22:00,28.0,22.0,30.21,ENE,65,0.0,-999.0,79,-99.99,,,-99.99,,2013-02-02 15:22:00,
2013-02-02 09:32:00,29.0,22.0,30.22,ENE,65,0.0,-999.0,76,-99.99,,,-99.99,,2013-02-02 15:32:00,
2013-02-02 09:42:00,29.0,22.0,30.22,ENE,65,0.0,-999.0,76,-99.99,,,-99.99,,2013-02-02 15:42:00,
2013-02-02 09:52:00,31.0,23.0,30.20,ENE,65,1.0,-999.0,71,-99.99,,,-99.99,,2013-02-02 15:52:00,
2013-02-02 10:03:00,33.0,24.0,30.20,NNW,346,0.0,-999.0,70,-99.99,,,-99.99,,2013-02-02 16:03:00,
2013-02-02 10:11:00,33.0,24.0,30.20,NNW,346,0.0,-999.0,70,-99.99,,,-99.99,,2013-02-02 16:11:00,
2013-02-02 10:22:00,35.0,25.0,30.19,East,86,0.0,-999.0,66,-99.99,,,-99.99,,2013-02-02 16:22:00,
2013-02-02 10:32:00,37.0,26.0,30.20,East,87,0.0,-999.0,64,-99.99,,,-99.99,,2013-02-02 16:32:00,
2013-02-02 10:42:00,37.0,26.0,30.20,East,87,0.0,-999.0,64,-99.99,,,-99.99,,2013-02-02 16:42:00,
2013-02-02 10:52:00,39.0,25.0,30.22,NNW,333,2.0,-999.0,57,-99.99,,,-99.99,,2013-02-02 16:52:00,
2013-02-02 11:02:00,40.0,26.0,30.22,NW,317,2.0,-999.0,56,-99.99,,,-99.99,,2013-02-02 17:02:00,
2013-02-02 11:11:00,40.0,26.0,30.22,NW,317,2.0,-999.0,56,-99.99,,,-99.99,,2013-02-02 17:11:00,
2013-02-02 11:22:00,42.0,27.0,30.22,West,259,3.0,-999.0,56,-99.99,,,-99.99,,2013-02-02 17:22:00,
2013-02-02 11:32:00,45.0,28.0,30.22,NW,306,7.0,-999.0,52,-99.99,,,-99.99,,2013-02-02 17:32:00,
2013-02-02 11:42:00,45.0,28.0,30.22,NW,306,7.0,-999.0,52,-99.99,,,-99.99,,2013-02-02 17:42:00,
2013-02-02 11:52:00,45.0,29.0,30.22,West,277,8.0,-999.0,53,-99.99,,,-99.99,,2013-02-02 17:52:00,
2013-02-02 12:02:00,47.0,29.0,30.22,NW,304,6.0,-999.0,50,-99.99,,,-99.99,,2013-02-02 18:02:00,
2013-02-02 12:12:00,47.0,29.0,30.22,NW,304,6.0,-999.0,50,-99.99,,,-99.99,,2013-02-02 18:12:00,
2013-02-02 12:22:00,47.0,29.0,30.22,NW,304,6.0,-999.0,50,-99.99,,,-99.99,,2013-02-02 18:22:00,
2013-02-02 12:32:00,47.0,29.0,30.19,WNW,291,5.0,-999.0,50,-99.99,,,-99.99,,2013-02-02 18:32:00,
2013-02-02 12:42:00,47.0,29.0,30.19,WNW,291,5.0,-999.0,50,-99.99,,,-99.99,,2013-02-02 18:42:00,
2013-02-02 12:52:00,47.0,29.0,30.19,WNW,291,5.0,-999.0,50,-99.99,,,-99.99,,2013-02-02 18:52:00,
2013-02-02 13:02:00,49.0,31.0,30.17,WSW,247,5.0,-999.0,49,-99.99,,,-99.99,,2013-02-02 19:02:00,
2013-02-02 13:12:00,49.0,31.0,30.17,WSW,247,5.0,-999.0,49,-99.99,,,-99.99,,2013-02-02 19:12:00,
2013-02-02 13:21:00,50.0,32.0,30.16,WSW,242,4.0,-999.0,49,-99.99,,,-99.99,,2013-02-02 19:21:00,
2013-02-02 13:32:00,51.0,30.0,30.15,NW,324,6.0,-999.0,44,-99.99,,,-99.99,,2013-02-02 19:32:00,
2013-02-02 13:42:00,51.0,30.0,30.15,NW,324,6.0,-999.0,44,-99.99,,,-99.99,,2013-02-02 19:42:00,
2013-02-02 13:52:00,52.0,31.0,30.15,WSW,246,3.0,-999.0,45,-99.99,,,-99.99,,2013-02-02 19:52:00,
2013-02-02 14:01:00,52.0,30.0,30.15,NE,51,4.0,-999.0,42,-99.99,,,-99.99,,2013-02-02 20:01:00,
2013-02-02 14:11:00,52.0,30.0,30.15,NE,51,4.0,-999.0,42,-99.99,,,-99.99,,2013-02-02 20:11:00,
2013-02-02 14:21:00,52.0,31.0,30.15,WSW,257,7.0,-999.0,44,-99.99,,,-99.99,,2013-02-02 20:21:00,
2013-02-02 14:32:00,53.0,31.0,30.15,NW,312,5.0,-999.0,43,-99.99,,,-99.99,,2013-02-02 20:32:00,
2013-02-02 14:41:00,53.0,31.0,30.15,NW,312,5.0,-999.0,43,-99.99,,,-99.99,,2013-02-02 20:41:00,
2013-02-02 14:52:00,53.0,31.0,30.15,North,351,5.0,-999.0,42,-99.99,,,-99.99,,2013-02-02 20:52:00,
2013-02-02 15:02:00,54.0,33.0,30.15,West,276,6.0,-999.0,44,-99.99,,,-99.99,,2013-02-02 21:02:00,
2013-02-02 15:11:00,54.0,33.0,30.15,West,276,6.0,-999.0,44,-99.99,,,-99.99,,2013-02-02 21:11:00,
2013-02-02 15:21:00,54.0,31.0,30.14,NW,306,4.0,-999.0,42,-99.99,,,-99.99,,2013-02-02 21:21:00,
2013-02-02 15:32:00,54.0,31.0,30.14,WSW,243,4.0,-999.0,42,-99.99,,,-99.99,,2013-02-02 21:32:00,
2013-02-02 15:42:00,54.0,31.0,30.14,WSW,243,4.0,-999.0,42,-99.99,,,-99.99,,2013-02-02 21:42:00,
2013-02-02 15:52:00,54.0,31.0,30.14,West,278,6.0,-999.0,42,-99.99,,,-99.99,,2013-02-02 21:52:00,
2013-02-02 16:02:00,54.0,31.0,30.14,West,274,8.0,-999.0,42,-99.99,,,-99.99,,2013-02-02 22:02:00,
2013-02-02 16:11:00,54.0,31.0,30.14,West,274,8.0,-999.0,42,-99.99,,,-99.99,,2013-02-02 22:11:00,
2013-02-02 16:21:00,54.0,31.0,30.14,West,264,6.0,-999.0,42,-99.99,,,-99.99,,2013-02-02 22:21:00,
2013-02-02 16:32:00,55.0,32.0,30.14,WSW,253,6.0,-999.0,42,-99.99,,,-99.99,,2013-02-02 22:32:00,
2013-02-02 16:42:00,55.0,32.0,30.14,WSW,253,6.0,-999.0,42,-99.99,,,-99.99,,2013-02-02 22:42:00,
2013-02-02 16:52:00,54.0,31.0,30.14,WNW,289,4.0,-999.0,42,-99.99,,,-99.99,,2013-02-02 22:52:00,
2013-02-02 17:01:00,54.0,32.0,30.15,WNW,300,3.0,-999.0,43,-99.99,,,-99.99,,2013-02-02 23:01:00,
2013-02-02 17:11:00,54.0,32.0,30.15,WNW,300,3.0,-999.0,43,-99.99,,,-99.99,,2013-02-02 23:11:00,
2013-02-02 17:21:00,54.0,32.0,30.16,WNW,301,4.0,-999.0,43,-99.99,,,-99.99,,2013-02-02 23:21:00,
2013-02-02 17:32:00,53.0,32.0,30.16,NW,305,3.0,-999.0,44,-99.99,,,-99.99,,2013-02-02 23:32:00,
2013-02-02 17:42:00,53.0,32.0,30.16,NW,305,3.0,-999.0,44,-99.99,,,-99.99,,2013-02-02 23:42:00,
2013-02-02 17:52:00,52.0,32.0,30.16,WNW,285,2.0,-999.0,47,-99.99,,,-99.99,,2013-02-02 23:52:00,
2013-02-02 18:01:00,51.0,33.0,30.16,WNW,298,1.0,-999.0,50,-99.99,,,-99.99,,2013-02-03 00:01:00,
2013-02-02 18:11:00,51.0,33.0,30.16,WNW,298,1.0,-999.0,50,-99.99,,,-99.99,,2013-02-03 00:11:00,
2013-02-02 18:22:00,49.0,32.0,30.17,WNW,298,0.0,-999.0,51,-99.99,,,-99.99,,2013-02-03 00:22:00,
2013-02-02 18:32:00,46.0,32.0,30.17,WNW,298,0.0,-999.0,57,-99.99,,,-99.99,,2013-02-03 00:32:00,
2013-02-02 18:41:00,46.0,32.0,30.17,WNW,298,0.0,-999.0,57,-99.99,,,-99.99,,2013-02-03 00:41:00,
2013-02-02 18:52:00,44.0,32.0,30.17,WNW,298,0.0,-999.0,62,-99.99,,,-99.99,,2013-02-03 00:52:00,
2013-02-02 19:32:00,38.0,29.0,30.17,WNW,298,0.0,-999.0,70,-99.99,,,-99.99,,2013-02-03 01:32:00,
2013-02-02 19:52:00,37.0,30.0,30.17,WNW,298,0.0,-999.0,75,-99.99,,,-99.99,,2013-02-03 01:52:00,
2013-02-02 20:01:00,36.0,30.0,30.18,WNW,298,0.0,-999.0,78,-99.99,,,-99.99,,2013-02-03 02:01:00,
2013-02-02 20:21:00,35.0,29.0,30.18,WNW,298,0.0,-999.0,77,-99.99,,,-99.99,,2013-02-03 02:21:00,
2013-02-02 20:32:00,34.0,28.0,30.17,WNW,298,0.0,-999.0,79,-99.99,,,-99.99,,2013-02-03 02:32:00,
2013-02-02 20:52:00,34.0,28.0,30.17,WNW,298,0.0,-999.0,78,-99.99,,,-99.99,,2013-02-03 02:52:00,
2013-02-02 21:02:00,33.0,28.0,30.17,WNW,298,0.0,-999.0,80,-99.99,,,-99.99,,2013-02-03 03:02:00,
2013-02-02 21:11:00,32.0,27.0,30.17,WNW,298,0.0,-999.0,80,-99.99,,,-99.99,,2013-02-03 03:11:00,
2013-02-02 21:21:00,32.0,27.0,30.17,WNW,298,0.0,-999.0,80,-99.99,,,-99.99,,2013-02-03 03:21:00,
2013-02-02 21:31:00,32.0,27.0,30.17,WNW,298,0.0,-999.0,81,-99.99,,,-99.99,,2013-02-03 03:31:00,
2013-02-02 21:52:00,31.0,26.0,30.17,WNW,298,0.0,-999.0,83,-99.99,,,-99.99,,2013-02-03 03:52:00,
2013-02-02 22:01:00,31.0,26.0,30.17,WNW,298,0.0,-999.0,83,-99.99,,,-99.99,,2013-02-03 04:01:00,
2013-02-02 22:21:00,30.0,26.0,30.16,WNW,298,0.0,-999.0,84,-99.99,,,-99.99,,2013-02-03 04:21:00,
2013-02-02 22:31:00,30.0,26.0,30.16,WNW,298,0.0,-999.0,85,-99.99,,,-99.99,,2013-02-03 04:31:00,
2013-02-02 22:52:00,30.0,26.0,30.16,WNW,298,0.0,-999.0,85,-99.99,,,-99.99,,2013-02-03 04:52:00,
2013-02-02 23:03:00,29.0,25.0,30.16,WNW,298,0.0,-999.0,86,-99.99,,,-99.99,,2013-02-03 05:03:00,
2013-02-02 23:22:00,29.0,25.0,30.16,WNW,298,0.0,-999.0,86,-99.99,,,-99.99,,2013-02-03 05:22:00,
2013-02-02 23:32:00,29.0,26.0,30.16,WNW,298,0.0,-999.0,87,-99.99,,,-99.99,,2013-02-03 05:32:00,
2013-02-02 23:52:00,29.0,26.0,30.16,WNW,298,0.0,-999.0,87,-99.99,,,-99.99,,2013-02-03 05:52:00,